Time,TemperatureF,DewpointF,PressureIn,WindDirection,WindDirectionDegrees,WindSpeedMPH,WindSpeedGustMPH,Humidity,HourlyPrecipIn,Conditions,Clouds,dailyrainin,SoftwareType,DateUTC
2013-04-29 00:03:00,51.8,47.1,29.74,WNW,292,1.0,0.0,84,0.00,,---,0.00,VWS V14.00,2013-04-29 05:03:00,
2013-04-29 00:09:00,51.4,47.1,29.74,WNW,292,1.0,0.0,85,0.00,,---,0.00,VWS V14.00,2013-04-29 05:09:00,
2013-04-29 00:14:00,51.1,46.7,29.74,WNW,292,1.0,0.0,85,0.00,,---,0.00,VWS V14.00,2013-04-29 05:14:00,
2013-04-29 00:19:00,50.9,46.6,29.74,WNW,292,1.0,0.0,85,0.00,,---,0.00,VWS V14.00,2013-04-29 05:19:00,
2013-04-29 00:24:00,50.7,46.4,29.74,WNW,292,1.0,0.0,85,0.00,,---,0.00,VWS V14.00,2013-04-29 05:24:00,
2013-04-29 00:30:00,50.4,46.0,29.74,WNW,292,1.0,0.0,85,0.00,,---,0.00,VWS V14.00,2013-04-29 05:30:00,
2013-04-29 00:35:00,50.2,46.2,29.74,WNW,292,1.0,0.0,86,0.00,,---,0.00,VWS V14.00,2013-04-29 05:35:00,
2013-04-29 00:41:00,50.0,46.0,29.74,WNW,292,1.0,0.0,86,0.00,,---,0.00,VWS V14.00,2013-04-29 05:41:00,
2013-04-29 00:47:00,49.8,45.8,29.74,WNW,292,1.0,0.0,86,0.00,,---,0.00,VWS V14.00,2013-04-29 05:47:00,
2013-04-29 00:52:00,49.6,45.6,29.74,WNW,292,1.0,0.0,86,0.00,,---,0.00,VWS V14.00,2013-04-29 05:52:00,
2013-04-29 00:57:00,49.5,45.8,29.74,WNW,292,1.0,0.0,87,0.00,,---,0.00,VWS V14.00,2013-04-29 05:57:00,
2013-04-29 01:03:00,49.5,46.1,29.74,WNW,292,1.0,0.0,88,0.00,,---,0.00,VWS V14.00,2013-04-29 06:03:00,
2013-04-29 01:10:00,49.5,46.1,29.74,WNW,292,1.0,0.0,88,0.00,,---,0.00,VWS V14.00,2013-04-29 06:10:00,
2013-04-29 01:15:00,49.1,45.7,29.74,WNW,292,1.0,0.0,88,0.00,,---,0.00,VWS V14.00,2013-04-29 06:15:00,
2013-04-29 01:20:00,49.1,45.7,29.74,WNW,292,1.0,0.0,88,0.00,,---,0.00,VWS V14.00,2013-04-29 06:20:00,
2013-04-29 01:26:00,48.9,45.5,29.74,WNW,292,1.0,0.0,88,0.00,,---,0.00,VWS V14.00,2013-04-29 06:26:00,
2013-04-29 01:31:00,48.9,45.8,29.74,WNW,292,1.0,0.0,89,0.00,,---,0.00,VWS V14.00,2013-04-29 06:31:00,
2013-04-29 01:37:00,48.9,45.5,29.74,WNW,292,1.0,0.0,88,0.00,,---,0.00,VWS V14.00,2013-04-29 06:37:00,
2013-04-29 01:42:00,48.7,45.7,29.74,WNW,292,1.0,0.0,89,0.00,,---,0.00,VWS V14.00,2013-04-29 06:42:00,
2013-04-29 01:49:00,48.7,45.7,29.74,WNW,292,1.0,0.0,89,0.00,,---,0.00,VWS V14.00,2013-04-29 06:49:00,
2013-04-29 01:54:00,48.7,45.9,29.74,WNW,292,1.0,0.0,90,0.00,,---,0.00,VWS V14.00,2013-04-29 06:54:00,
2013-04-29 01:59:00,48.7,45.9,29.74,WNW,292,1.0,0.0,90,0.00,,---,0.00,VWS V14.00,2013-04-29 06:59:00,
2013-04-29 02:04:00,48.6,45.8,29.74,WNW,292,1.0,0.0,90,0.00,,---,0.00,VWS V14.00,2013-04-29 07:04:00,
2013-04-29 02:09:00,48.6,0.0,29.74,WNW,292,1.0,0.0,0,0.00,,---,0.00,VWS V14.00,2013-04-29 07:09:00,
2013-04-29 02:15:00,48.4,45.9,29.74,WNW,292,1.0,0.0,91,0.00,,---,0.00,VWS V14.00,2013-04-29 07:15:00,
2013-04-29 02:20:00,48.4,45.6,29.74,WNW,292,1.0,0.0,90,0.00,,---,0.00,VWS V14.00,2013-04-29 07:20:00,
2013-04-29 02:26:00,48.2,45.7,29.74,WNW,292,1.0,0.0,91,0.00,,---,0.00,VWS V14.00,2013-04-29 07:26:00,
2013-04-29 02:32:00,48.0,45.5,29.71,NW,315,1.0,0.0,91,0.00,,---,0.00,VWS V14.00,2013-04-29 07:32:00,
2013-04-29 02:37:00,48.0,45.5,29.71,NW,315,1.0,0.0,91,0.00,,---,0.00,VWS V14.00,2013-04-29 07:37:00,
2013-04-29 02:43:00,47.8,45.3,29.71,NW,315,1.0,0.0,91,0.00,,---,0.00,VWS V14.00,2013-04-29 07:43:00,
2013-04-29 02:48:00,47.8,45.3,29.71,NW,315,1.0,0.0,91,0.00,,---,0.00,VWS V14.00,2013-04-29 07:48:00,
2013-04-29 02:54:00,47.8,45.6,29.71,NW,315,1.0,0.0,92,0.00,,---,0.00,VWS V14.00,2013-04-29 07:54:00,
2013-04-29 02:59:00,47.7,45.2,29.71,NW,315,2.1,2.1,91,0.00,,---,0.00,VWS V14.00,2013-04-29 07:59:00,
2013-04-29 03:05:00,47.5,45.0,29.71,NW,315,1.0,0.0,91,0.00,,---,0.00,VWS V14.00,2013-04-29 08:05:00,
2013-04-29 03:11:00,47.3,44.8,29.71,NW,315,1.0,0.0,91,0.00,,---,0.00,VWS V14.00,2013-04-29 08:11:00,
2013-04-29 03:16:00,47.1,44.6,29.74,NW,315,1.0,0.0,91,0.00,,---,0.00,VWS V14.00,2013-04-29 08:16:00,
2013-04-29 03:22:00,47.1,44.6,29.74,NW,315,1.0,0.0,91,0.00,,---,0.00,VWS V14.00,2013-04-29 08:22:00,
2013-04-29 03:28:00,47.1,44.9,29.74,NW,315,1.0,0.0,92,0.00,,---,0.00,VWS V14.00,2013-04-29 08:28:00,
2013-04-29 03:33:00,46.9,44.7,29.71,NW,315,1.0,0.0,92,0.00,,---,0.00,VWS V14.00,2013-04-29 08:33:00,
2013-04-29 03:38:00,46.9,44.7,29.71,NW,315,1.0,0.0,92,0.00,,---,0.00,VWS V14.00,2013-04-29 08:38:00,
2013-04-29 03:44:00,46.9,44.7,29.71,NW,315,1.0,0.0,92,0.00,,---,0.00,VWS V14.00,2013-04-29 08:44:00,
2013-04-29 03:49:00,46.8,44.6,29.74,NW,315,1.0,0.0,92,0.00,,---,0.00,VWS V14.00,2013-04-29 08:49:00,
2013-04-29 03:54:00,46.8,44.3,29.74,NW,315,1.0,0.0,91,0.00,,---,0.00,VWS V14.00,2013-04-29 08:54:00,
2013-04-29 04:00:00,46.6,44.1,29.74,NW,315,1.0,0.0,91,0.00,,---,0.00,VWS V14.00,2013-04-29 09:00:00,
2013-04-29 04:05:00,46.6,44.1,29.74,NW,315,1.0,0.0,91,0.00,,---,0.00,VWS V14.00,2013-04-29 09:05:00,
2013-04-29 04:12:00,46.4,44.2,29.74,NW,315,1.0,0.0,92,0.00,,---,0.00,VWS V14.00,2013-04-29 09:12:00,
2013-04-29 04:17:00,46.4,44.2,29.74,NW,315,1.0,0.0,92,0.00,,---,0.00,VWS V14.00,2013-04-29 09:17:00,
2013-04-29 04:23:00,46.2,44.0,29.74,NW,315,1.0,0.0,92,0.00,,---,0.00,VWS V14.00,2013-04-29 09:23:00,
2013-04-29 04:29:00,46.2,44.0,29.74,NW,315,1.0,0.0,92,0.00,,---,0.00,VWS V14.00,2013-04-29 09:29:00,
2013-04-29 04:34:00,46.0,43.8,29.74,NW,315,1.0,0.0,92,0.00,,---,0.00,VWS V14.00,2013-04-29 09:34:00,
2013-04-29 04:40:00,45.9,43.7,29.74,NW,315,1.0,0.0,92,0.00,,---,0.00,VWS V14.00,2013-04-29 09:40:00,
2013-04-29 04:46:00,45.9,43.7,29.74,NW,315,1.0,0.0,92,0.00,,---,0.00,VWS V14.00,2013-04-29 09:46:00,
2013-04-29 04:51:00,45.7,43.5,29.74,NW,315,1.0,0.0,92,0.00,,---,0.00,VWS V14.00,2013-04-29 09:51:00,
2013-04-29 04:57:00,45.7,43.5,29.74,NW,315,1.0,0.0,92,0.00,,---,0.00,VWS V14.00,2013-04-29 09:57:00,
2013-04-29 05:04:00,45.7,43.5,29.74,NW,315,1.0,0.0,92,0.00,,---,0.00,VWS V14.00,2013-04-29 10:04:00,
2013-04-29 05:10:00,45.5,43.3,29.74,NW,315,1.0,0.0,92,0.00,,---,0.00,VWS V14.00,2013-04-29 10:10:00,
2013-04-29 05:15:00,45.7,43.5,29.74,NW,315,1.0,0.0,92,0.00,,---,0.00,VWS V14.00,2013-04-29 10:15:00,
2013-04-29 05:21:00,45.9,44.0,29.74,NW,315,1.0,0.0,93,0.00,,---,0.00,VWS V14.00,2013-04-29 10:21:00,
2013-04-29 05:26:00,45.9,44.0,29.74,NW,315,1.0,0.0,93,0.00,,---,0.00,VWS V14.00,2013-04-29 10:26:00,
2013-04-29 05:32:00,46.0,44.1,29.74,NW,315,1.0,0.0,93,0.00,,---,0.00,VWS V14.00,2013-04-29 10:32:00,
2013-04-29 05:37:00,46.0,44.4,29.74,NW,315,1.0,0.0,94,0.00,,---,0.00,VWS V14.00,2013-04-29 10:37:00,
2013-04-29 05:43:00,46.4,44.8,29.74,NW,315,1.0,1.0,94,0.00,,---,0.00,VWS V14.00,2013-04-29 10:43:00,
2013-04-29 05:49:00,46.6,45.0,29.74,NW,315,1.0,0.0,94,0.00,,---,0.00,VWS V14.00,2013-04-29 10:49:00,
2013-04-29 05:54:00,46.4,44.8,29.74,NW,315,1.0,0.0,94,0.00,,---,0.00,VWS V14.00,2013-04-29 10:54:00,
2013-04-29 05:59:00,46.4,44.8,29.74,NW,315,1.0,0.0,94,0.00,,---,0.00,VWS V14.00,2013-04-29 10:59:00,
2013-04-29 06:04:00,46.2,44.9,29.74,NW,315,1.0,0.0,95,0.00,,---,0.00,VWS V14.00,2013-04-29 11:04:00,
2013-04-29 06:10:00,46.0,44.7,29.74,NW,315,1.0,0.0,95,0.00,,---,0.00,VWS V14.00,2013-04-29 11:10:00,
2013-04-29 06:15:00,45.9,44.2,29.74,NW,315,1.0,0.0,94,0.00,,---,0.00,VWS V14.00,2013-04-29 11:15:00,
2013-04-29 06:21:00,45.9,44.2,29.74,NW,315,1.0,0.0,94,0.00,,---,0.00,VWS V14.00,2013-04-29 11:21:00,
2013-04-29 06:26:00,45.9,44.2,29.74,NW,315,1.0,0.0,94,0.00,,---,0.00,VWS V14.00,2013-04-29 11:26:00,
2013-04-29 06:32:00,46.0,44.7,29.76,NW,315,1.0,0.0,95,0.00,,---,0.00,VWS V14.00,2013-04-29 11:32:00,
2013-04-29 06:37:00,46.0,44.7,29.76,NW,315,1.0,0.0,95,0.00,,---,0.00,VWS V14.00,2013-04-29 11:37:00,
2013-04-29 06:42:00,46.2,44.9,29.76,NW,315,1.0,0.0,95,0.00,,---,0.00,VWS V14.00,2013-04-29 11:42:00,
2013-04-29 06:48:00,46.6,45.2,29.76,NW,315,1.0,0.0,95,0.00,,---,0.00,VWS V14.00,2013-04-29 11:48:00,
2013-04-29 06:53:00,46.8,45.4,29.76,NW,315,1.0,0.0,95,0.00,,---,0.00,VWS V14.00,2013-04-29 11:53:00,
2013-04-29 07:00:00,47.3,45.9,29.76,NW,315,1.0,0.0,95,0.00,,---,0.00,VWS V14.00,2013-04-29 12:00:00,
2013-04-29 07:05:00,47.8,46.8,29.76,NW,315,1.0,0.0,96,0.00,,---,0.00,VWS V14.00,2013-04-29 12:05:00,
2013-04-29 07:11:00,48.6,47.5,29.76,NW,315,1.0,0.0,96,0.00,,---,0.00,VWS V14.00,2013-04-29 12:11:00,
2013-04-29 07:17:00,49.5,48.4,29.76,NW,315,1.0,0.0,96,0.00,,---,0.00,VWS V14.00,2013-04-29 12:17:00,
2013-04-29 07:23:00,50.0,49.2,29.76,NW,315,1.0,0.0,97,0.00,,---,0.00,VWS V14.00,2013-04-29 12:23:00,
2013-04-29 07:28:00,50.5,49.7,29.76,SSW,202,1.0,1.3,97,0.00,,---,0.00,VWS V14.00,2013-04-29 12:28:00,
2013-04-29 07:34:00,51.4,50.6,29.76,SSE,158,4.1,4.1,97,0.00,,---,0.00,VWS V14.00,2013-04-29 12:34:00,
2013-04-29 07:39:00,52.2,51.3,29.76,ESE,112,4.4,4.4,97,0.00,,---,0.00,VWS V14.00,2013-04-29 12:39:00,
2013-04-29 07:45:00,52.9,52.3,29.76,SSE,158,5.2,5.2,98,0.00,,---,0.00,VWS V14.00,2013-04-29 12:45:00,
2013-04-29 07:51:00,53.2,52.7,29.76,South,180,3.0,3.0,98,0.00,,---,0.00,VWS V14.00,2013-04-29 12:51:00,
2013-04-29 07:56:00,54.0,53.1,29.76,SSE,158,4.6,4.6,97,0.00,,---,0.00,VWS V14.00,2013-04-29 12:56:00,
2013-04-29 08:01:00,54.5,53.7,29.76,SE,135,4.9,5.8,97,0.00,,---,0.00,VWS V14.00,2013-04-29 13:01:00,
2013-04-29 08:06:00,54.9,54.0,29.76,SSW,202,6.0,6.0,97,0.00,,---,0.00,VWS V14.00,2013-04-29 13:06:00,
2013-04-29 08:11:00,55.2,54.4,29.76,SSW,202,5.8,6.0,97,0.00,,---,0.00,VWS V14.00,2013-04-29 13:11:00,
2013-04-29 08:16:00,55.4,54.3,29.76,SW,225,8.0,8.0,96,0.00,,---,0.00,VWS V14.00,2013-04-29 13:16:00,
2013-04-29 08:22:00,55.9,54.8,29.76,SSW,202,4.9,4.9,96,0.00,,---,0.00,VWS V14.00,2013-04-29 13:22:00,
2013-04-29 08:27:00,56.5,55.4,29.76,SE,135,7.7,7.7,96,0.00,,---,0.00,VWS V14.00,2013-04-29 13:27:00,
2013-04-29 08:33:00,56.8,55.4,29.79,South,180,5.8,5.8,95,0.00,,---,0.00,VWS V14.00,2013-04-29 13:33:00,
2013-04-29 08:39:00,57.2,55.5,29.79,SSE,158,6.0,6.0,94,0.00,,---,0.00,VWS V14.00,2013-04-29 13:39:00,
2013-04-29 08:44:00,57.6,55.8,29.79,SSE,158,5.8,5.8,94,0.00,,---,0.00,VWS V14.00,2013-04-29 13:44:00,
2013-04-29 08:49:00,58.1,56.4,29.79,SSW,202,4.4,5.8,94,0.00,,---,0.00,VWS V14.00,2013-04-29 13:49:00,
2013-04-29 08:54:00,58.3,56.3,29.79,ESE,112,8.0,8.0,93,0.00,,---,0.00,VWS V14.00,2013-04-29 13:54:00,
2013-04-29 09:00:00,58.6,56.3,29.79,SE,135,6.3,8.7,92,0.00,,---,0.00,VWS V14.00,2013-04-29 14:00:00,
2013-04-29 09:05:00,59.0,56.4,29.79,SSE,158,8.3,9.0,91,0.00,,---,0.00,VWS V14.00,2013-04-29 14:05:00,
2013-04-29 09:10:00,59.2,56.2,29.79,South,180,9.1,9.1,90,0.00,,---,0.00,VWS V14.00,2013-04-29 14:10:00,
2013-04-29 09:16:00,59.5,56.3,29.79,WSW,248,11.6,11.6,89,0.00,,---,0.00,VWS V14.00,2013-04-29 14:16:00,
2013-04-29 09:22:00,60.1,56.5,29.79,WSW,248,7.7,7.7,88,0.00,,---,0.00,VWS V14.00,2013-04-29 14:22:00,
2013-04-29 09:27:00,60.3,56.1,29.79,South,180,5.8,6.3,86,0.00,,---,0.00,VWS V14.00,2013-04-29 14:27:00,
2013-04-29 09:33:00,60.6,56.4,29.79,SSW,202,5.8,6.0,86,0.00,,---,0.00,VWS V14.00,2013-04-29 14:33:00,
2013-04-29 09:38:00,61.3,57.4,29.79,ESE,112,5.8,5.8,87,0.00,,---,0.00,VWS V14.00,2013-04-29 14:38:00,
2013-04-29 09:44:00,61.9,57.7,29.79,SSW,202,6.0,6.0,86,0.00,,---,0.00,VWS V14.00,2013-04-29 14:44:00,
2013-04-29 09:50:00,62.6,58.0,29.79,SSE,158,6.0,7.6,85,0.00,,---,0.00,VWS V14.00,2013-04-29 14:50:00,
2013-04-29 09:55:00,63.0,57.7,29.79,SSE,158,8.0,8.0,83,0.00,,---,0.00,VWS V14.00,2013-04-29 14:55:00,
2013-04-29 10:01:00,63.1,57.6,29.79,SE,135,9.1,9.1,82,0.00,,---,0.00,VWS V14.00,2013-04-29 15:01:00,
2013-04-29 10:06:00,63.9,57.9,29.79,SE,135,13.3,13.3,81,0.00,,---,0.00,VWS V14.00,2013-04-29 15:06:00,
2013-04-29 10:12:00,64.4,57.8,29.79,SSE,158,6.3,6.3,79,0.00,,---,0.00,VWS V14.00,2013-04-29 15:12:00,
2013-04-29 10:17:00,64.8,57.4,29.79,SE,135,9.1,9.1,77,0.00,,---,0.00,VWS V14.00,2013-04-29 15:17:00,
2013-04-29 10:23:00,65.5,57.7,29.79,South,180,6.0,8.7,76,0.00,,---,0.00,VWS V14.00,2013-04-29 15:23:00,
2013-04-29 10:29:00,65.7,57.2,29.79,SSW,202,13.3,13.3,74,0.00,,---,0.00,VWS V14.00,2013-04-29 15:29:00,
2013-04-29 10:34:00,66.0,57.5,29.79,South,180,8.6,8.6,74,0.00,,---,0.00,VWS V14.00,2013-04-29 15:34:00,
2013-04-29 10:41:00,66.2,57.3,29.79,SSE,158,4.9,7.8,73,0.00,,---,0.00,VWS V14.00,2013-04-29 15:41:00,
2013-04-29 10:46:00,66.6,58.0,29.79,South,180,8.8,8.8,74,0.00,,---,0.00,VWS V14.00,2013-04-29 15:46:00,
2013-04-29 10:51:00,66.9,58.4,29.79,South,180,5.5,5.8,74,0.00,,---,0.00,VWS V14.00,2013-04-29 15:51:00,
2013-04-29 10:58:00,67.3,58.0,29.79,SE,135,10.2,10.2,72,0.00,,---,0.00,VWS V14.00,2013-04-29 15:58:00,
2013-04-29 11:03:00,67.3,58.0,29.79,SSE,158,8.8,8.8,72,0.00,,---,0.00,VWS V14.00,2013-04-29 16:03:00,
2013-04-29 11:08:00,68.0,58.3,29.79,SE,135,11.9,12.1,71,0.00,,---,0.00,VWS V14.00,2013-04-29 16:08:00,
2013-04-29 11:14:00,68.0,57.9,29.79,South,180,8.6,8.6,70,0.00,,---,0.00,VWS V14.00,2013-04-29 16:14:00,
2013-04-29 11:20:00,68.4,58.2,29.79,SSE,158,7.2,7.2,70,0.00,,---,0.00,VWS V14.00,2013-04-29 16:20:00,
2013-04-29 11:25:00,68.7,58.2,29.79,SW,225,7.7,7.7,69,0.00,,---,0.00,VWS V14.00,2013-04-29 16:25:00,
2013-04-29 11:31:00,68.9,58.3,29.79,SSE,158,10.5,10.5,69,0.00,,---,0.00,VWS V14.00,2013-04-29 16:31:00,
2013-04-29 11:36:00,69.6,57.8,29.79,SSE,158,8.6,9.6,66,0.00,,---,0.00,VWS V14.00,2013-04-29 16:36:00,
2013-04-29 11:42:00,69.8,57.9,29.79,SSE,158,11.9,12.8,66,0.00,,---,0.00,VWS V14.00,2013-04-29 16:42:00,
2013-04-29 11:47:00,70.0,58.1,29.76,South,180,5.8,8.7,66,0.00,,---,0.00,VWS V14.00,2013-04-29 16:47:00,
2013-04-29 11:53:00,70.5,58.6,29.76,SSE,158,8.6,8.6,66,0.00,,---,0.00,VWS V14.00,2013-04-29 16:53:00,
2013-04-29 11:59:00,70.9,58.5,29.76,South,180,9.1,9.1,65,0.00,,---,0.00,VWS V14.00,2013-04-29 16:59:00,
2013-04-29 12:04:00,71.2,58.9,29.76,SSW,202,4.9,6.3,65,0.00,,---,0.00,VWS V14.00,2013-04-29 17:04:00,
2013-04-29 12:10:00,71.4,58.6,29.76,SE,135,11.9,11.9,64,0.00,,---,0.00,VWS V14.00,2013-04-29 17:10:00,
2013-04-29 12:15:00,71.6,58.3,29.76,SSE,158,9.1,11.0,63,0.00,,---,0.00,VWS V14.00,2013-04-29 17:15:00,
2013-04-29 12:21:00,71.8,59.4,29.76,SSE,158,13.9,13.9,65,0.00,,---,0.00,VWS V14.00,2013-04-29 17:21:00,
2013-04-29 12:27:00,72.0,58.7,29.76,WSW,248,5.8,7.8,63,0.00,,---,0.00,VWS V14.00,2013-04-29 17:27:00,
2013-04-29 12:32:00,72.1,58.9,29.76,South,180,5.8,8.7,63,0.00,,---,0.00,VWS V14.00,2013-04-29 17:32:00,
2013-04-29 12:37:00,72.1,58.0,29.76,South,180,8.3,8.3,61,0.00,,---,0.00,VWS V14.00,2013-04-29 17:37:00,
2013-04-29 12:44:00,72.5,58.8,29.76,ESE,112,5.5,5.5,62,0.00,,---,0.00,VWS V14.00,2013-04-29 17:44:00,
2013-04-29 12:49:00,73.0,60.2,29.76,South,180,6.0,6.0,64,0.00,,---,0.00,VWS V14.00,2013-04-29 17:49:00,
2013-04-29 12:54:00,73.2,58.5,29.76,SE,135,8.8,10.1,60,0.00,,---,0.00,VWS V14.00,2013-04-29 17:54:00,
2013-04-29 12:59:00,73.4,58.2,29.76,SSW,202,8.6,8.7,59,0.00,,---,0.00,VWS V14.00,2013-04-29 17:59:00,
2013-04-29 13:04:00,73.6,58.8,29.74,SSE,158,11.1,11.1,60,0.00,,---,0.00,VWS V14.00,2013-04-29 18:04:00,
2013-04-29 13:09:00,73.6,58.8,29.74,South,180,7.7,8.1,60,0.00,,---,0.00,VWS V14.00,2013-04-29 18:09:00,
2013-04-29 13:15:00,73.9,56.3,29.74,SE,135,16.7,16.7,54,0.00,,---,0.00,VWS V14.00,2013-04-29 18:15:00,
2013-04-29 13:20:00,74.1,59.4,29.74,SSW,202,8.0,8.5,60,0.00,,---,0.00,VWS V14.00,2013-04-29 18:20:00,
2013-04-29 13:25:00,74.7,59.4,29.74,SSE,158,8.6,8.6,59,0.00,,---,0.00,VWS V14.00,2013-04-29 18:25:00,
2013-04-29 13:30:00,74.8,57.1,29.74,South,180,16.1,16.1,54,0.00,,---,0.00,VWS V14.00,2013-04-29 18:30:00,
2013-04-29 13:35:00,75.0,58.8,29.74,SSE,158,8.3,12.1,57,0.00,,---,0.00,VWS V14.00,2013-04-29 18:35:00,
2013-04-29 13:40:00,74.8,58.6,29.74,SW,225,8.8,9.8,57,0.00,,---,0.00,VWS V14.00,2013-04-29 18:40:00,
2013-04-29 13:45:00,75.0,59.3,29.74,South,180,11.9,11.9,58,0.00,,---,0.00,VWS V14.00,2013-04-29 18:45:00,
2013-04-29 13:50:00,75.4,59.1,29.74,SW,225,6.3,7.4,57,0.00,,---,0.00,VWS V14.00,2013-04-29 18:50:00,
2013-04-29 13:55:00,75.2,58.9,29.74,SSE,158,8.3,8.3,57,0.00,,---,0.00,VWS V14.00,2013-04-29 18:55:00,
2013-04-29 14:00:00,75.4,58.1,29.74,SE,135,11.6,11.6,55,0.00,,---,0.00,VWS V14.00,2013-04-29 19:00:00,
2013-04-29 14:05:00,75.7,57.9,29.71,SSE,158,19.5,19.5,54,0.00,,---,0.00,VWS V14.00,2013-04-29 19:05:00,
2013-04-29 14:11:00,75.7,57.4,29.71,SE,135,10.0,10.0,53,0.00,,---,0.00,VWS V14.00,2013-04-29 19:11:00,
2013-04-29 14:16:00,76.1,58.8,29.71,ESE,112,8.8,8.8,55,0.00,,---,0.00,VWS V14.00,2013-04-29 19:16:00,
2013-04-29 14:21:00,76.1,58.8,29.71,SSW,202,10.0,12.5,55,0.00,,---,0.00,VWS V14.00,2013-04-29 19:21:00,
2013-04-29 14:26:00,76.3,58.4,29.71,South,180,5.5,6.0,54,0.00,,---,0.00,VWS V14.00,2013-04-29 19:26:00,
2013-04-29 14:31:00,76.6,59.3,29.71,SSE,158,10.2,10.2,55,0.00,,---,0.00,VWS V14.00,2013-04-29 19:31:00,
2013-04-29 14:37:00,76.6,59.3,29.71,ESE,112,8.6,8.6,55,0.00,,---,0.00,VWS V14.00,2013-04-29 19:37:00,
2013-04-29 14:42:00,76.8,59.5,29.71,SE,135,10.2,10.2,55,0.00,,---,0.00,VWS V14.00,2013-04-29 19:42:00,
2013-04-29 14:47:00,76.8,58.4,29.71,SE,135,14.1,14.1,53,0.00,,---,0.00,VWS V14.00,2013-04-29 19:47:00,
2013-04-29 14:52:00,77.0,59.6,29.71,WNW,292,7.7,7.7,55,0.00,,---,0.00,VWS V14.00,2013-04-29 19:52:00,
2013-04-29 14:57:00,76.8,58.4,29.71,SSE,158,9.1,9.1,53,0.00,,---,0.00,VWS V14.00,2013-04-29 19:57:00,
2013-04-29 15:02:00,77.0,58.0,29.71,SSE,158,10.2,11.0,52,0.00,,---,0.00,VWS V14.00,2013-04-29 20:02:00,
2013-04-29 15:07:00,77.4,58.9,29.71,South,180,4.6,6.0,53,0.00,,---,0.00,VWS V14.00,2013-04-29 20:07:00,
2013-04-29 15:12:00,77.5,58.0,29.71,SSE,158,9.4,9.4,51,0.00,,---,0.00,VWS V14.00,2013-04-29 20:12:00,
2013-04-29 15:17:00,77.5,58.5,29.68,SE,135,7.7,8.1,52,0.00,,---,0.00,VWS V14.00,2013-04-29 20:17:00,
2013-04-29 15:22:00,77.5,56.9,29.68,South,180,5.8,11.0,49,0.00,,---,0.00,VWS V14.00,2013-04-29 20:22:00,
2013-04-29 15:27:00,77.5,58.0,29.68,SSE,158,8.8,8.8,51,0.00,,---,0.00,VWS V14.00,2013-04-29 20:27:00,
2013-04-29 15:33:00,77.5,57.5,29.68,SE,135,9.1,9.1,50,0.00,,---,0.00,VWS V14.00,2013-04-29 20:33:00,
2013-04-29 15:38:00,77.7,58.7,29.68,South,180,10.0,10.0,52,0.00,,---,0.00,VWS V14.00,2013-04-29 20:38:00,
2013-04-29 15:43:00,78.1,58.0,29.68,SE,135,6.9,6.9,50,0.00,,---,0.00,VWS V14.00,2013-04-29 20:43:00,
2013-04-29 15:48:00,78.3,58.1,29.68,SE,135,7.7,8.1,50,0.00,,---,0.00,VWS V14.00,2013-04-29 20:48:00,
2013-04-29 15:53:00,78.3,59.2,29.68,SSW,202,6.3,6.3,52,0.00,,---,0.00,VWS V14.00,2013-04-29 20:53:00,
2013-04-29 15:58:00,77.9,58.3,29.68,SW,225,6.6,8.5,51,0.00,,---,0.00,VWS V14.00,2013-04-29 20:58:00,
2013-04-29 16:03:00,77.9,57.8,29.68,SW,225,6.3,7.2,50,0.00,,---,0.00,VWS V14.00,2013-04-29 21:03:00,
2013-04-29 16:08:00,78.1,58.5,29.68,SSW,202,8.0,9.4,51,0.00,,---,0.00,VWS V14.00,2013-04-29 21:08:00,
2013-04-29 16:13:00,77.9,57.8,29.68,South,180,10.8,10.8,50,0.00,,---,0.00,VWS V14.00,2013-04-29 21:13:00,
2013-04-29 16:18:00,77.9,56.7,29.68,SE,135,8.3,10.3,48,0.00,,---,0.00,VWS V14.00,2013-04-29 21:18:00,
2013-04-29 16:23:00,77.9,57.8,29.68,SE,135,8.6,8.6,50,0.00,,---,0.00,VWS V14.00,2013-04-29 21:23:00,
2013-04-29 16:28:00,77.9,57.2,29.68,South,180,11.1,11.1,49,0.00,,---,0.00,VWS V14.00,2013-04-29 21:28:00,
2013-04-29 16:33:00,78.1,58.0,29.68,SSW,202,5.5,6.0,50,0.00,,---,0.00,VWS V14.00,2013-04-29 21:33:00,
2013-04-29 16:38:00,78.1,58.0,29.68,South,180,5.8,5.8,50,0.00,,---,0.00,VWS V14.00,2013-04-29 21:38:00,
2013-04-29 16:43:00,78.1,58.5,29.68,SSE,158,6.3,6.3,51,0.00,,---,0.00,VWS V14.00,2013-04-29 21:43:00,
2013-04-29 16:48:00,78.3,57.5,29.68,SSE,158,8.6,8.6,49,0.00,,---,0.00,VWS V14.00,2013-04-29 21:48:00,
2013-04-29 16:53:00,78.1,57.4,29.68,South,180,8.3,8.3,49,0.00,,---,0.00,VWS V14.00,2013-04-29 21:53:00,
2013-04-29 16:58:00,78.3,57.5,29.68,South,180,6.3,9.6,49,0.00,,---,0.00,VWS V14.00,2013-04-29 21:58:00,
2013-04-29 17:03:00,78.4,57.7,29.68,SSE,158,4.6,7.6,49,0.00,,---,0.00,VWS V14.00,2013-04-29 22:03:00,
2013-04-29 17:08:00,78.4,57.7,29.68,SE,135,7.2,7.2,49,0.00,,---,0.00,VWS V14.00,2013-04-29 22:08:00,
2013-04-29 17:13:00,78.4,57.1,29.68,SSW,202,7.2,7.2,48,0.00,,---,0.00,VWS V14.00,2013-04-29 22:13:00,
2013-04-29 17:18:00,78.4,56.6,29.65,SSW,202,9.1,9.1,47,0.00,,---,0.00,VWS V14.00,2013-04-29 22:18:00,
2013-04-29 17:23:00,78.6,57.3,29.65,SSW,202,5.5,6.5,48,0.00,,---,0.00,VWS V14.00,2013-04-29 22:23:00,
2013-04-29 17:28:00,78.6,56.7,29.65,South,180,10.2,10.2,47,0.00,,---,0.00,VWS V14.00,2013-04-29 22:28:00,
2013-04-29 17:33:00,78.8,56.9,29.68,SSW,202,8.8,8.8,47,0.00,,---,0.00,VWS V14.00,2013-04-29 22:33:00,
2013-04-29 17:38:00,78.8,56.3,29.68,SE,135,5.8,5.8,46,0.00,,---,0.00,VWS V14.00,2013-04-29 22:38:00,
2013-04-29 17:43:00,78.8,56.9,29.68,South,180,5.2,5.2,47,0.00,,---,0.00,VWS V14.00,2013-04-29 22:43:00,
2013-04-29 17:48:00,78.8,56.3,29.68,SSW,202,8.0,8.0,46,0.00,,---,0.00,VWS V14.00,2013-04-29 22:48:00,
2013-04-29 17:54:00,78.8,56.3,29.68,SSE,158,6.9,6.9,46,0.00,,---,0.00,VWS V14.00,2013-04-29 22:54:00,
2013-04-29 17:59:00,78.8,56.3,29.68,SE,135,8.3,8.3,46,0.00,,---,0.00,VWS V14.00,2013-04-29 22:59:00,
2013-04-29 18:04:00,78.4,56.0,29.68,SSW,202,6.3,7.6,46,0.00,,---,0.00,VWS V14.00,2013-04-29 23:04:00,
2013-04-29 18:10:00,78.3,55.8,29.68,SSW,202,10.2,10.2,46,0.00,,---,0.00,VWS V14.00,2013-04-29 23:10:00,
2013-04-29 18:15:00,77.9,54.9,29.68,South,180,6.9,8.1,45,0.00,,---,0.00,VWS V14.00,2013-04-29 23:15:00,
2013-04-29 18:20:00,77.5,56.3,29.65,South,180,8.0,8.0,48,0.00,,---,0.00,VWS V14.00,2013-04-29 23:20:00,
2013-04-29 18:25:00,77.2,56.0,29.65,South,180,6.0,7.4,48,0.00,,---,0.00,VWS V14.00,2013-04-29 23:25:00,
2013-04-29 18:30:00,76.6,56.1,29.65,SSW,202,6.0,10.1,49,0.00,,---,0.00,VWS V14.00,2013-04-29 23:30:00,
2013-04-29 18:35:00,76.3,55.2,29.65,SSE,158,9.7,9.7,48,0.00,,---,0.00,VWS V14.00,2013-04-29 23:35:00,
2013-04-29 18:40:00,75.7,55.2,29.65,SSE,158,8.0,8.0,49,0.00,,---,0.00,VWS V14.00,2013-04-29 23:40:00,
2013-04-29 18:45:00,75.6,55.6,29.65,SSE,158,6.3,6.3,50,0.00,,---,0.00,VWS V14.00,2013-04-29 23:45:00,
2013-04-29 18:50:00,75.2,55.8,29.65,South,180,6.0,6.0,51,0.00,,---,0.00,VWS V14.00,2013-04-29 23:50:00,
2013-04-29 18:55:00,74.8,56.0,29.65,SSE,158,5.5,5.5,52,0.00,,---,0.00,VWS V14.00,2013-04-29 23:55:00,
2013-04-29 19:00:00,74.5,56.2,29.65,SSE,158,8.0,8.0,53,0.00,,---,0.00,VWS V14.00,2013-04-30 00:00:00,
2013-04-29 19:05:00,73.9,56.3,29.65,South,180,6.0,6.0,54,0.00,,---,0.00,VWS V14.00,2013-04-30 00:05:00,
2013-04-29 19:11:00,73.6,55.9,29.65,South,180,4.4,4.4,54,0.00,,---,0.00,VWS V14.00,2013-04-30 00:11:00,
2013-04-29 19:17:00,73.0,56.4,29.65,SSE,158,6.3,6.3,56,0.00,,---,0.00,VWS V14.00,2013-04-30 00:17:00,
2013-04-29 19:22:00,72.3,56.2,29.65,SSE,158,4.1,5.6,57,0.00,,---,0.00,VWS V14.00,2013-04-30 00:22:00,
2013-04-29 19:27:00,71.8,56.2,29.65,South,180,3.0,4.3,58,0.00,,---,0.00,VWS V14.00,2013-04-30 00:27:00,
2013-04-29 19:32:00,71.4,56.4,29.65,SE,135,5.5,5.5,59,0.00,,---,0.00,VWS V14.00,2013-04-30 00:32:00,
2013-04-29 19:37:00,70.9,56.3,29.65,SE,135,5.5,5.5,60,0.00,,---,0.00,VWS V14.00,2013-04-30 00:37:00,
2013-04-29 19:42:00,70.5,56.4,29.65,SSE,158,6.9,6.9,61,0.00,,---,0.00,VWS V14.00,2013-04-30 00:42:00,
2013-04-29 19:47:00,70.3,56.3,29.65,SSW,202,4.6,4.6,61,0.00,,---,0.00,VWS V14.00,2013-04-30 00:47:00,
2013-04-29 19:52:00,70.0,55.9,29.65,South,180,4.6,4.6,61,0.00,,---,0.00,VWS V14.00,2013-04-30 00:52:00,
2013-04-29 19:57:00,69.6,56.0,29.65,South,180,5.8,5.8,62,0.00,,---,0.00,VWS V14.00,2013-04-30 00:57:00,
2013-04-29 20:02:00,69.3,55.7,29.65,SE,135,4.6,4.6,62,0.00,,---,0.00,VWS V14.00,2013-04-30 01:02:00,
2013-04-29 20:07:00,68.9,55.8,29.65,SSE,158,4.6,4.6,63,0.00,,---,0.00,VWS V14.00,2013-04-30 01:07:00,
2013-04-29 20:12:00,68.5,55.5,29.65,SSE,158,4.1,4.1,63,0.00,,---,0.00,VWS V14.00,2013-04-30 01:12:00,
2013-04-29 20:17:00,68.2,55.1,29.68,SSE,158,4.4,4.4,63,0.00,,---,0.00,VWS V14.00,2013-04-30 01:17:00,
2013-04-29 20:22:00,68.0,55.0,29.68,SSW,202,3.5,3.5,63,0.00,,---,0.00,VWS V14.00,2013-04-30 01:22:00,
2013-04-29 20:28:00,67.5,55.3,29.68,SE,135,3.0,3.0,65,0.00,,---,0.00,VWS V14.00,2013-04-30 01:28:00,
2013-04-29 20:33:00,67.3,55.1,29.65,South,180,2.4,2.4,65,0.00,,---,0.00,VWS V14.00,2013-04-30 01:33:00,
2013-04-29 20:38:00,66.9,55.2,29.65,SSE,158,4.9,4.9,66,0.00,,---,0.00,VWS V14.00,2013-04-30 01:38:00,
2013-04-29 20:43:00,66.7,55.0,29.65,South,180,2.1,2.2,66,0.00,,---,0.00,VWS V14.00,2013-04-30 01:43:00,
2013-04-29 20:49:00,66.7,55.5,29.68,SSW,202,1.0,0.0,67,0.00,,---,0.00,VWS V14.00,2013-04-30 01:49:00,
2013-04-29 20:54:00,66.2,55.3,29.68,SW,225,1.0,2.0,68,0.00,,---,0.00,VWS V14.00,2013-04-30 01:54:00,
2013-04-29 20:59:00,66.0,55.2,29.68,SSW,202,2.4,2.4,68,0.00,,---,0.00,VWS V14.00,2013-04-30 01:59:00,
2013-04-29 21:05:00,65.8,55.4,29.68,SSW,202,1.0,1.6,69,0.00,,---,0.00,VWS V14.00,2013-04-30 02:05:00,
2013-04-29 21:10:00,65.7,55.6,29.68,SSW,202,2.4,2.4,70,0.00,,---,0.00,VWS V14.00,2013-04-30 02:10:00,
2013-04-29 21:15:00,65.5,55.5,29.68,South,180,1.0,0.0,70,0.00,,---,0.00,VWS V14.00,2013-04-30 02:15:00,
2013-04-29 21:20:00,65.1,55.5,29.68,South,180,1.0,0.0,71,0.00,,---,0.00,VWS V14.00,2013-04-30 02:20:00,
2013-04-29 21:26:00,64.9,55.3,29.68,South,180,1.0,0.0,71,0.00,,---,0.00,VWS V14.00,2013-04-30 02:26:00,
2013-04-29 21:32:00,64.6,55.0,29.68,South,180,2.7,2.7,71,0.00,,---,0.00,VWS V14.00,2013-04-30 02:32:00,
2013-04-29 21:38:00,64.4,55.2,29.68,South,180,3.8,3.8,72,0.00,,---,0.00,VWS V14.00,2013-04-30 02:38:00,
2013-04-29 21:43:00,64.2,55.0,29.68,South,180,2.4,2.4,72,0.00,,---,0.00,VWS V14.00,2013-04-30 02:43:00,
2013-04-29 21:48:00,64.2,55.0,29.68,South,180,3.0,3.0,72,0.00,,---,0.00,VWS V14.00,2013-04-30 02:48:00,
2013-04-29 21:53:00,64.0,54.8,29.68,SSW,202,3.0,3.0,72,0.00,,---,0.00,VWS V14.00,2013-04-30 02:53:00,
2013-04-29 21:58:00,63.9,54.7,29.68,South,180,2.7,2.7,72,0.00,,---,0.00,VWS V14.00,2013-04-30 02:58:00,
2013-04-29 22:03:00,63.9,54.7,29.68,SSW,202,2.7,2.7,72,0.00,,---,0.00,VWS V14.00,2013-04-30 03:03:00,
2013-04-29 22:08:00,63.9,54.7,29.68,South,180,3.0,3.0,72,0.00,,---,0.00,VWS V14.00,2013-04-30 03:08:00,
2013-04-29 22:13:00,63.9,54.7,29.68,South,180,2.7,2.7,72,0.00,,---,0.00,VWS V14.00,2013-04-30 03:13:00,
2013-04-29 22:18:00,63.7,54.5,29.68,SW,225,2.7,2.7,72,0.00,,---,0.00,VWS V14.00,2013-04-30 03:18:00,
2013-04-29 22:23:00,63.5,54.3,29.68,SW,225,2.7,2.7,72,0.00,,---,0.00,VWS V14.00,2013-04-30 03:23:00,
2013-04-29 22:28:00,63.1,54.0,29.68,SW,225,2.7,2.7,72,0.00,,---,0.00,VWS V14.00,2013-04-30 03:28:00,
2013-04-29 22:33:00,63.0,54.2,29.68,SW,225,2.7,2.7,73,0.00,,---,0.00,VWS V14.00,2013-04-30 03:33:00,
2013-04-29 22:38:00,62.8,54.0,29.68,SW,225,2.7,2.7,73,0.00,,---,0.00,VWS V14.00,2013-04-30 03:38:00,
2013-04-29 22:43:00,62.6,53.8,29.68,SW,225,1.0,0.0,73,0.00,,---,0.00,VWS V14.00,2013-04-30 03:43:00,
2013-04-29 22:48:00,62.4,54.0,29.68,SW,225,1.0,0.0,74,0.00,,---,0.00,VWS V14.00,2013-04-30 03:48:00,
2013-04-29 22:53:00,62.1,54.0,29.68,SW,225,1.0,0.0,75,0.00,,---,0.00,VWS V14.00,2013-04-30 03:53:00,
2013-04-29 22:58:00,61.9,53.9,29.68,SW,225,1.0,0.0,75,0.00,,---,0.00,VWS V14.00,2013-04-30 03:58:00,
2013-04-29 23:01:00,61.7,53.7,29.68,SW,225,1.0,0.0,75,0.00,,---,0.00,VWS V14.00,2013-04-30 04:01:00,
2013-04-29 23:02:00,61.7,53.7,29.68,SW,225,1.0,0.0,75,0.00,,---,0.00,VWS V14.00,2013-04-30 04:02:00,
2013-04-29 23:05:00,61.7,53.7,29.68,SW,225,1.0,0.0,75,0.00,,---,0.00,VWS V14.00,2013-04-30 04:05:00,
2013-04-29 23:06:00,61.5,53.5,29.68,SW,225,1.0,0.0,75,0.00,,---,0.00,VWS V14.00,2013-04-30 04:06:00,
2013-04-29 23:12:00,61.5,53.9,29.68,SW,225,1.0,0.0,76,0.00,,---,0.00,VWS V14.00,2013-04-30 04:12:00,
2013-04-29 23:17:00,61.3,53.7,29.68,SW,225,1.0,0.0,76,0.00,,---,0.00,VWS V14.00,2013-04-30 04:17:00,
2013-04-29 23:22:00,61.3,53.7,29.68,SW,225,1.0,0.0,76,0.00,,---,0.00,VWS V14.00,2013-04-30 04:22:00,
2013-04-29 23:27:00,61.2,53.9,29.68,SW,225,1.0,0.0,77,0.00,,---,0.00,VWS V14.00,2013-04-30 04:27:00,
2013-04-29 23:32:00,61.0,53.7,29.68,SW,225,1.0,0.0,77,0.00,,---,0.00,VWS V14.00,2013-04-30 04:32:00,
2013-04-29 23:38:00,60.8,53.5,29.68,SW,225,1.0,0.0,77,0.00,,---,0.00,VWS V14.00,2013-04-30 04:38:00,
2013-04-29 23:43:00,60.6,53.7,29.68,SW,225,1.0,0.0,78,0.00,,---,0.00,VWS V14.00,2013-04-30 04:43:00,
2013-04-29 23:48:00,60.6,54.1,29.68,SW,225,1.0,0.0,79,0.00,,---,0.00,VWS V14.00,2013-04-30 04:48:00,
2013-04-29 23:53:00,60.4,53.9,29.68,SW,225,2.1,2.1,79,0.00,,---,0.00,VWS V14.00,2013-04-30 04:53:00,
2013-04-29 23:58:00,60.3,53.7,29.68,SSW,202,2.7,2.7,79,0.00,,---,0.00,VWS V14.00,2013-04-30 04:58:00,